Regional Weather Roundup
Issued by NWS Wakefield, VA

Home | Current Version | Previous Version | Graphics & Text | Print | Product List | Glossary On
Versions: 1 2 3 4 5 6 7 8 9 10 11 12 13 14 15 16 17 18 19 20 21 22 23 24 25 26 27 28 29 30 31 32 33 34 35 36 37 38 39 40 41 42 43 44 45 46 47 48 49 50
000
ASUS41 KAKQ 311110
RWRAKQ

REGIONAL WEATHER ROUNDUP
NATIONAL WEATHER SERVICE WAKEFIELD VA
600 AM EST SAT JAN 31 2015

Note: "fair" indicates few or no clouds below 12,000 feet with no
significant weather and/or obstructions to visibility. * = Denotes
station may not report precipitation (e.g., rain,snow,etc.),
thunder or fog.

VAZ042-051-052>054-056-311200-
NORTHERN VIRGINIA

CITY           SKY/WX    TMP DP  RH WIND       PRES   REMARKS
WASH NATIONAL  CLEAR     21   4  47 NW12G20   30.31S WCI   9
DULLES         CLEAR     17   2  51 NW12      30.29S WCI   4
FORT BELVOIR   CLEAR     19   2  49 NW9       30.31S
QUANTICO       CLEAR     20   3  48 N10       30.33R WCI   9
FREDERICKSBRG* CLEAR     20   7  57 N5        30.30S
STAFFORD*      FAIR      19   2  49 CALM      30.34S
WARRENTON      CLEAR     19   9  64 CALM      30.29R
CULPEPER*      CLEAR     14   9  79 CALM      30.29R
MANASSAS*      CLEAR     18   7  62 N8        30.31R
LEESBURG*      CLEAR     19   9  63 N12G18    30.30S WCI   7
WINCHESTER     CLEAR     19   0  42 NW6       30.29R
FRONT ROYAL*   FAIR      21  -2  35 N9        30.27S
LURAY*         FAIR      19   7  58 E3        30.26S
$$

VAZ048-049-060>072-079>083-311200-
CENTRAL AND SOUTH CENTRAL VIRGINIA

CITY           SKY/WX    TMP DP  RH WIND       PRES   REMARKS
RICHMOND       CLEAR     20   7  57 N3        30.30R
CHESTERFIELD*  FAIR      16   0  48 CALM      30.31R
PETERSBURG*    FAIR      16  12  85 CALM      30.32R
HANOVER        CLEAR     16   9  74 CALM      30.31R
TAPPAHANNOCK*  CLEAR     21   2  45 CALM      30.30R
QUINTON*       FAIR      17   7  63 CALM      30.31R
CHARLOTTSVILLE CLEAR     21   1  41 CALM      30.27R
GORDONSVILLE*  FAIR      14   8  78 CALM      30.28R
ORANGE*        CLEAR     14  10  85 CALM      30.30R
LOUISA*        CLEAR     12   9  85 CALM      30.27R
BUMPASS*       FAIR      14   8  78 CALM      30.29S
FARMVILLE*     CLEAR     15  10  81 CALM      30.29R
CREWE*         FAIR      20  10  64 CALM      30.29R
FORT PICKETT*  FAIR      21  10  61 W3        30.29S
CHASE CITY*    FAIR      24  12  61 CALM      30.31R
CLARKSVILLE*   FAIR      25   9  50 CALM      30.31S
SOUTH HILL*    CLEAR     23  10  57 CALM      30.36S
LAWRENCEVILLE* FAIR      19  10  69 CALM      30.30R
EMPORIA*       CLEAR     18  10  73 CALM      30.34R
$$

VAZ088>098-311200-
SOUTHEAST VIRGINIA

CITY           SKY/WX    TMP DP  RH WIND       PRES   REMARKS
NORFOLK        CLEAR     25   5  42 N12G20    30.28R WCI  14
VIRGINIA BEACH FAIR      26   8  46 NW29G36   30.26R WCI  10
NORFOLK NAVAL  CLEAR     26   6  42 NW13G24   30.30R WCI  15
WEST POINT*    CLEAR     23   4  44 NW6       30.32R
SALUDA*        FAIR      21   6  53 NW13G28   30.28R WCI   9
NEWPORT NEWS   CLEAR     25   6  44 N10       30.29R WCI  15
LANGLEY AFB    CLEAR     23   4  45 NW15G22   30.29R WCI  10
FORT EUSTIS    CLEAR     23   7  50 N8G20     30.28R
WILLIAMSBURG*    N/A     23   9  54 NW7       30.31R
HR EXEC AP*    FAIR      21   7  53 W6        30.32R
FRANKLIN*      CLEAR     21  10  63 NW5       30.32R
WAKEFIELD      CLEAR     22   6  50 NW3       30.31R
$$

VAZ020-022-025-037-045-311200-
WEST CENTRAL AND SOUTHWEST VIRGINIA

CITY           SKY/WX    TMP DP  RH WIND       PRES   REMARKS
STAUNTON*      CLEAR     13   6  74 CALM      30.27R
WAYNESBORO*    FAIR      19   1  47 W5        30.23R
HOT SPRINGS VA CLEAR     10   0  64 W20       30.04F WCI  -9
LYNCHBURG      CLEAR     16   7  67 CALM      30.28R
DANVILLE       CLEAR     18  10  71 SW3       30.32S
SOUTH BOSTON*  FAIR      22   7  51 CALM      30.32R
MARTINSVILLE   CLEAR     19  11  71 CALM      30.32R
ROANOKE        CLEAR     22   4  46 E3        30.29S
BLACKSBURG     CLEAR     17   9  70 W9        30.27S
DUBLIN*        CLEAR     17  10  73 CALM      30.26S
MARION*        CLEAR     20  11  68 W15       30.27F WCI   7
HILLSVILLE*    CLEAR     19   9  63 NW7       30.20F
RICHLANDS*     FAIR      17   8  67 W3        30.26F
WISE*          CLEAR     19  12  73 CALM      30.28S
ABINGDON*      CLEAR     20  13  73 CALM      30.30F
$$

MDZ021>025-VAZ099-100-311200-
SOUTHERN MARYLAND AND THE DELMARVA PENINSULA

CITY           SKY/WX    TMP DP  RH WIND       PRES   REMARKS
PATUXENT RIVER CLEAR     20   5  52 NW23G33   30.27R WCI   3
BAY BRIDGE APT   N/A     21   5  49 NW16G28   30.26F WCI   7
LEONARDTOWN    CLEAR     19   3  49 NW9G17    30.29R
DOVER          CLEAR     16  -1  46 W17       30.21S WCI   0
GEORGETOWN     CLEAR     18  -3  39 NW10G22   30.22R WCI   6
EASTON         CLEAR     22   6  51 N15G26    30.28S WCI   8
CAMBRIDGE      CLEAR     23   5  46 NW16G26   30.24S WCI  10
SALISBURY      CLEAR     21   1  41 NW15G28   30.22S WCI   8
OCEAN CITY     CLEAR     19   1  45 NW12G25   30.21R WCI   7
WALLOPS ISLAND CLEAR     20   3  48 NW17G24   30.22S WCI   5
ACCOMACK*      CLEAR     23   9  54 NW21G29   30.24R WCI   8
$$

NCZ012>017-030>032-311200-
NORTH CENTRAL AND EASTERN NORTH CAROLINA

CITY           SKY/WX    TMP DP  RH WIND       PRES   REMARKS
ROANOKE RAPIDS FAIR      25  12  58 W5        30.33R
RALEIGH        CLEAR     23   8  52 CALM      30.33R
ELIZABETH CITY CLEAR     24   9  52 NW9       30.29R
AHOSKIE*       CLEAR     24  10  55 CALM      30.33R
EDENTON*       CLEAR     27  14  59 NW7       30.30R
CURRITUCK*     CLEAR     26   4  38 NW12G20   30.29R WCI  16
KILL DEVIL HLS CLEAR     27   8  44 NW14G25   30.25R WCI  16
MANTEO         CLEAR     27   9  46 NW20G28   30.26S WCI  13
CAPE HATTERAS  CLEAR     30  14  51 NW14G29   30.26R WCI  19
TARBORO*       FAIR      27  12  53 NW9       30.34R
GOLDSBORO      CLEAR     32  12  43 NW9       30.28R
WASHINGTON     CLEAR     26  13  58 NW3       30.32R
GREENVILLE     CLEAR     28  12  50 NW5       30.33R
NEW BERN       CLEAR     28  13  53 NW7       30.32F
WILMINGTON     CLEAR     29  10  45 N7        30.32S
$$

VAZ048-311200-
ELSEWHERE

CITY           SKY/WX    TMP DP  RH WIND       PRES   REMARKS
HARRISBURG PA  CLEAR     13  -1  54 NW15G25   30.26S WCI  -3
BALTIMORE      CLEAR     17   5  59 W9        30.26S
ANNAPOLIS      CLEAR     20   7  57 W9G21     30.27R
ANDREWS AFB    CLEAR     18   4  53 NW15      30.27R WCI   3
PHILADELPHIA   CLEAR     15  -3  44 NW20G26   30.21S WCI  -2
HENDERSON NC   CLEAR     25   7  47 CALM      30.31S
GREENSBORO     CLEAR     21   8  57 W3        30.30R
ROCKY MOUNT    CLEAR     27  11  51 NW9       30.33R
$$

VAZ100-311200-
MARINE

STATION/POSITION TIME  TEMP    WIND        PRES    WAVE   SWELL
                       AIR SEA DIR/SP/G            HT/PER HT/PER
                 (UTC) (F)     (DEG/KT/KT) (MB)    (FT/S) (FT/S)
BRANDYWINE LGT   1100   19 35  340/ 24/ 34 1022.0R
CAPE MAY NJ      1100   19 34              1021.6S
LEWES DE         1100   20 33  320/ 30/ 35 1022.5R
15NM E FENWICK I 1100   22 39              1020.6R   8/ 7
OCEAN-CITY-INLET 1100   21 37  330/ 14/ 22 1022.3R
WACHAPREAGUE VA  1100   22 34  310/  3/ 15 1023.8R
THOMAS POINT MD  1100   20 34  320/ 15/ 17 1025.9R
GOOSES REEF MD   1100   21     VRB 17/ 23  1023.9S
COVE POINT MD    1100   19     340/ 23/ 26 1024.5S
SOLOMONS ISLAND  1100      36                N/A
BISHOPS HEAD MD  1100   20 30  330/ 16/ 23 1023.8S
PINEY POINT MD   1100          340/ 23/ 27   N/A
POTOMAC MD       1100   22     340/ 19/ 25 1023.7F
CAMBRIDGE MD     1100   22 33  320/ 21/ 26 1024.0F
LEWISETTA VA     1100   21 33  340/ 13/ 18 1025.4S
RAPPAHANNOCK LGT 1100          330/ 30/ 35 1024.7F
STINGRAY PT      1100   23     330/ 19/ 23 1025.2S
YORK RVR RNG VA  1100   24     330/ 23/ 26 1024.8R
YORKTOWN VA      1100   24 38  330/ 14/ 20 1025.5R
JAMESTOWN VA     1100   22     360/  8/ 12   N/A
DOMINION TERM VA 1100   25     350/  5/ 14 1025.6R
KIPTOPEKE VA     1100      40  340/ 25/ 31   N/A
CHES BAY BRIDGE  1100   26 38  310/ 31/ 35 1024.8R
CAPE HENRY VA    1100   25     320/ 27/ 32 1023.6R
CHESAPEAKE LGHT  1000   25     320/ 33/ 36 1024.0R
WILLOUBY STN VA  1100   24     330/ 16/ 17 1025.9R
S CRANEY ISL VA  1100          330/  9/ 13 1025.6R
CAPE HENRY BUOY  1100      42                N/A     7/ 6
1ST LANDING BUOY 1100   27     330/ 27/ 33 1024.7R
CAPE CHARLES BUO 1100      40                N/A     5/ 5   2/11
OFFSHORE WE BUOY 1100      43                N/A     9/ 5   2/14
64NM E OF VA BCH 1100   30 48  320/ 29/ 37 1021.3R  11/ 8
DUCK PIER NC     1100   27 41  330/ 29/ 36 1023.2R
44100 DUCK FRF   1000      44                N/A     9/ 7
44056 DUCK FRF   1100      42                N/A     7/ 8   2/11
OREGON INLET NC  1100   28 39  310/ 20/ 26 1024.2R
HATTERAS NC      1100   32 40  330/ 24/ 29 1024.9R



USA.gov is the U.S. government's official web portal to all federal, state and local government web resources and services.